Weather History for New Braunfels, TX

Change the Weather History Date:

Monday, April 29, 2013

  Actual Average (KSAT) Record (KSAT)
Temperature  
Mean Temperature 71 °F 73 °F  
Max Temperature 82 °F 83 °F 98 °F (1909)
Min Temperature 60 °F 62 °F 46 °F (1965)
Degree Days  
Heating Degree Days 0 0  
Month to date heating degree days 38  
Since 1 July heating degree days 1493  
Cooling Degree Days 6 8  
Month to date cooling degree days 161  
Year to date cooling degree days 252  
Growing Degree Days 21 (Base 50)    
Moisture  
Dew Point 63 °F    
Average Humidity 85    
Maximum Humidity 100    
Minimum Humidity 47    
Precipitation  
Precipitation 0.08 in 0.09 in 2.12 in (1919)
Month to date precipitation 2.01  
Year to date precipitation 7.87  
Snow  
Snow 0.00 in - - ()
Month to date snowfall  
Since 1 July snowfall  
Snow Depth -    
Sea Level Pressure  
Sea Level Pressure 29.87 in    
Wind  
Wind Speed 4 mph (SSW)    
Max Wind Speed 29 mph    
Max Gust Speed 36 mph    
Visibility 6 miles    
Events Fog , Rain , Thunderstorm    
T = Trace of Precipitation, MM = Missing Value Source: NWS Daily Summary

Daily Weather History Graph

Daily Weather History Graph

Search for Another Location

Airport:

Trip Planner

Search our weather history database for the weather conditions in past years. The results will help you decide how hot, cold, wet, or windy it might be!

Date:

Astronomy

Apr. 29, 2013 Rise Set
Actual Time 6:51 AM CDT 8:08 PM CDT
Civil Twilight 6:26 AM CDT 8:33 PM CDT
Nautical Twilight 5:56 AM CDT 9:03 PM CDT
Astronomical Twilight 5:25 AM CDT 9:34 PM CDT
Moon No Moon Rise 10:20 AM CDT (4/29)
Length of Visible Light 14h 07m
Length of Day
13h 16m
Waning Gibbous, 80% of the Moon is Illuminated
Apr 29
Waning Gibbous
May 2
Last Quarter
May 9
New
May 17
First Quarter
May 24
Full

Hourly Weather History & Observations

Time (CDT) Temp. Heat Index Dew Point Humidity Pressure Visibility Wind Dir Wind Speed Gust Speed Precip Events Conditions
12:51 AM 64.9 °F - 62.1 °F 90% 29.92 in 10.0 mi SE 3.5 mph - N/A   Clear
1:51 AM 64.0 °F - 62.1 °F 93% 29.89 in 9.0 mi SE 4.6 mph - N/A   Clear
2:34 AM 62.6 °F - 62.6 °F 100% 29.90 in 1.8 mi Calm Calm - N/A   Partly Cloudy
2:38 AM 62.6 °F - 62.6 °F 100% 29.90 in 1.2 mi Calm Calm - N/A   Partly Cloudy
2:44 AM 62.6 °F - 62.6 °F 100% 29.90 in 1.8 mi Calm Calm - N/A   Partly Cloudy
2:48 AM 62.6 °F - 62.6 °F 100% 29.90 in 3.0 mi Calm Calm - N/A   Partly Cloudy
2:51 AM 62.1 °F - 62.1 °F 100% 29.88 in 2.0 mi Calm Calm - N/A   Partly Cloudy
2:53 AM 62.6 °F - 60.8 °F 94% 29.89 in 1.0 mi NNW 3.5 mph - N/A   Mist
3:01 AM 60.8 °F - 60.8 °F 100% 29.89 in 0.8 mi North 5.8 mph - N/A   Mist
3:03 AM 60.8 °F - 60.8 °F 100% 29.89 in 1.2 mi North 4.6 mph - N/A   Scattered Clouds
3:05 AM 60.8 °F - 60.8 °F 100% 29.89 in 1.8 mi North 3.5 mph - N/A   Partly Cloudy
3:14 AM 62.6 °F - 60.8 °F 94% 29.89 in 1.2 mi Calm Calm - N/A   Scattered Clouds
3:16 AM 62.6 °F - 60.8 °F 94% 29.89 in 0.8 mi Calm Calm - N/A   Mist
3:40 AM 60.8 °F - 60.8 °F 100% 29.89 in 0.2 mi Calm Calm - N/A Fog Fog
3:49 AM 60.8 °F - 60.8 °F 100% 29.89 in 0.2 mi SW 3.5 mph - N/A Fog Fog
3:51 AM 61.0 °F - 60.1 °F 97% 29.87 in 0.2 mi WSW 4.6 mph - N/A Fog Fog
3:54 AM 60.8 °F - 60.8 °F 100% 29.89 in 0.5 mi SW 4.6 mph - N/A Fog Fog
4:00 AM 60.8 °F - 60.8 °F 100% 29.89 in 1.2 mi WSW 3.5 mph - N/A   Overcast
4:02 AM 60.8 °F - 60.8 °F 100% 29.89 in 2.0 mi SW 3.5 mph - N/A   Overcast
4:08 AM 62.6 °F - 60.8 °F 94% 29.89 in 3.0 mi SSW 4.6 mph - N/A   Overcast
4:41 AM 66.2 °F - 64.4 °F 94% 29.89 in 4.0 mi SSW 4.6 mph - N/A   Overcast
4:51 AM 66.0 °F - 64.9 °F 96% 29.86 in 5.0 mi South 3.5 mph - N/A   Overcast
5:51 AM 66.0 °F - 64.9 °F 96% 29.87 in 5.0 mi South 5.8 mph - N/A   Overcast
6:31 AM 66.2 °F - 64.4 °F 94% 29.89 in 7.0 mi SSW 3.5 mph - N/A   Overcast
6:38 AM 66.2 °F - 64.4 °F 94% 29.90 in 7.0 mi Calm Calm - N/A   Overcast
6:51 AM 66.9 °F - 64.9 °F 93% 29.88 in 6.0 mi SW 4.6 mph - N/A   Overcast
7:12 AM 66.2 °F - 64.4 °F 94% 29.90 in 5.0 mi WSW 3.5 mph - N/A   Overcast
7:35 AM 66.2 °F - 64.4 °F 94% 29.91 in 4.0 mi SW 3.5 mph - N/A   Scattered Clouds
7:51 AM 68.0 °F - 66.0 °F 93% 29.89 in 4.0 mi SSW 3.5 mph - N/A   Partly Cloudy
8:10 AM 69.8 °F - 66.2 °F 88% 29.91 in 6.0 mi South 6.9 mph - N/A   Mostly Cloudy
8:16 AM 69.8 °F - 66.2 °F 88% 29.91 in 6.0 mi SSW 5.8 mph - N/A   Mostly Cloudy
8:35 AM 69.8 °F - 66.2 °F 88% 29.91 in 8.0 mi SSW 6.9 mph - N/A   Mostly Cloudy
8:42 AM 71.6 °F - 66.2 °F 83% 29.91 in 9.0 mi SSW 5.8 mph - N/A   Partly Cloudy
8:51 AM 71.1 °F - 66.0 °F 84% 29.90 in 9.0 mi South 6.9 mph - N/A   Partly Cloudy
9:01 AM 71.6 °F - 66.2 °F 83% 29.92 in 10.0 mi South 8.1 mph - N/A   Mostly Cloudy
9:51 AM 73.0 °F - 64.0 °F 73% 29.90 in 10.0 mi WSW 5.8 mph - N/A   Mostly Cloudy
9:58 AM 73.4 °F - 64.4 °F 73% 29.92 in 10.0 mi SW 8.1 mph - N/A   Mostly Cloudy
10:51 AM 77.0 °F - 62.1 °F 60% 29.89 in 10.0 mi SW 6.9 mph - N/A   Mostly Cloudy
11:13 AM 78.8 °F - 62.6 °F 57% 29.91 in 10.0 mi SSW 6.9 mph - N/A   Mostly Cloudy
11:51 AM 79.0 °F - 62.1 °F 56% 29.89 in 10.0 mi Variable 4.6 mph - N/A   Scattered Clouds
12:51 PM 80.1 °F 81.2 °F 62.1 °F 54% 29.87 in 10.0 mi Calm Calm - N/A   Scattered Clouds
1:51 PM 82.9 °F 83.3 °F 61.0 °F 47% 29.84 in 10.0 mi SSE 8.1 mph - N/A   Mostly Cloudy
2:51 PM 81.0 °F 81.7 °F 61.0 °F 50% 29.81 in 10.0 mi SE 12.7 mph - N/A Thunderstorm Thunderstorm
3:20 PM 82.4 °F 82.9 °F 60.8 °F 48% 29.82 in 10.0 mi South 9.2 mph - N/A   Partly Cloudy
3:51 PM 82.0 °F 82.7 °F 61.0 °F 49% 29.78 in 10.0 mi Variable 5.8 mph 16.1 mph N/A   Scattered Clouds
4:33 PM 80.6 °F 82.7 °F 66.2 °F 61% 29.78 in 10.0 mi NE 10.4 mph - 0.05 in Rain , Thunderstorm Light Thunderstorms and Rain
4:51 PM 80.1 °F 81.9 °F 64.9 °F 60% 29.76 in 10.0 mi SE 12.7 mph - 0.05 in   Scattered Clouds
5:10 PM 77.0 °F - 66.2 °F 69% 29.78 in 10.0 mi SE 13.8 mph - 0.00 in   Scattered Clouds
5:51 PM 72.0 °F - 64.0 °F 76% 29.78 in 10.0 mi SE 28.8 mph 35.7 mph 0.00 in   Mostly Cloudy
6:51 PM 68.0 °F - 63.0 °F 84% 29.80 in 10.0 mi South 15.0 mph 24.2 mph N/A   Mostly Cloudy
8:51 PM 66.0 °F - 63.0 °F 90% 29.82 in 10.0 mi ESE 6.9 mph - 0.00 in   Clear
9:51 PM 66.0 °F - 64.0 °F 93% 29.84 in 10.0 mi SW 6.9 mph - 0.00 in Rain Light Rain
10:51 PM 66.0 °F - 64.0 °F 93% 29.82 in 10.0 mi South 9.2 mph - 0.03 in Rain Light Rain
11:51 PM 64.9 °F - 63.0 °F 93% 29.82 in 10.0 mi Calm Calm - 0.00 in   Clear